Theta_e
319 323 325 327 327 332 339 342 342 343 349 349 350 346 345 344 344 344 342 342 341 341 340 340 342 342 344 346 347 348 347 347 348 348 348 348 350 351 351 351 347 352 346 352
315 320 322 327 328 334 337 341 342 342 344 346 344 345 344 345 345 344 343 342 342 341 337 340 342 342 343 346 347 348 347 348 346 343 343 347 348 351 351 350 348 350 349 352
315 318 320 326 328 328 334 338 340 342 342 341 342 344 346 344 346 347 343 341 341 341 338 339 342 342 343 346 347 347 348 347 343 340 344 346 348 351 355 352 350 350 351 352
317 317 322 322 325 324 326 334 339 342 340 342 339 343 338 344 345 351 349 344 340 339 339 338 341 342 343 344 347 348 348 347 346 344 345 344 347 350 352 353 353 353 354 353
319 319 319 321 322 324 325 335 339 340 337 336 339 339 336 344 346 345 347 344 342 339 340 339 340 342 343 344 345 346 347 347 346 345 347 348 347 350 351 353 353 352 352 353
318 319 319 319 320 320 324 329 327 326 333 340 336 338 336 348 347 343 342 344 343 340 341 339 339 341 343 343 344 344 345 345 345 345 348 349 347 350 354 353 352 348 352 353
317 318 319 319 320 319 320 326 328 342 340 342 327 334 334 335 343 344 344 343 340 341 341 340 340 339 343 343 343 344 345 345 345 346 348 349 348 350 352 351 348 343 354 353
316 318 318 319 318 318 319 320 323 330 329 330 329 333 332 331 336 340 341 339 338 341 341 342 341 340 341 343 342 343 347 346 346 346 349 349 349 349 351 352 351 347 350 351
314 317 318 319 320 318 320 320 319 320 319 323 324 328 331 339 341 339 334 336 339 342 343 343 342 342 341 342 342 343 343 347 347 347 349 350 349 349 350 352 352 350 344 347
316 317 317 319 320 319 319 316 321 316 324 326 324 335 331 340 343 341 344 343 341 338 344 344 344 344 343 342 342 343 343 342 344 347 349 349 348 349 354 355 353 353 350 344
314 315 317 319 319 317 317 317 314 315 318 323 329 333 337 341 338 337 341 336 336 337 340 342 342 345 344 345 343 344 343 343 345 347 348 348 347 347 348 355 355 355 354 349
314 311 315 315 318 318 317 316 314 317 320 324 329 336 344 345 344 342 339 333 333 339 339 338 338 343 344 348 348 347 346 345 346 347 349 349 349 349 349 349 352 354 356 354
315 314 316 318 319 319 321 317 315 314 315 323 336 338 342 343 342 343 341 334 339 345 344 342 338 341 344 346 350 351 350 348 348 349 352 352 352 352 352 353 352 351 354 358
321 313 315 317 321 318 324 319 316 315 316 327 339 345 346 347 346 344 345 342 344 346 350 351 349 346 343 346 348 353 355 354 354 355 356 356 355 354 355 357 357 357 356 358
320 324 320 320 323 331 336 338 320 320 324 338 343 347 345 346 346 341 350 346 348 352 357 357 351 349 352 347 346 351 355 356 356 356 357 357 356 356 357 359 358 358 358 358
317 323 327 327 330 335 338 340 340 346 341 346 345 350 344 343 344 347 353 351 354 352 348 357 355 352 351 353 356 353 354 357 358 358 358 358 358 359 358 358 358 358 360 359
318 324 323 330 329 334 337 339 343 345 344 345 351 347 339 341 343 349 353 354 352 346 349 356 354 353 353 354 355 356 359 361 359 359 359 359 359 359 359 359 360 361 360 358
319 321 322 325 329 340 336 335 337 344 344 342 343 341 340 341 339 337 340 344 346 345 343 351 351 353 355 356 356 356 358 359 360 361 360 361 361 359 359 360 361 361 359 357
313 318 328 331 334 336 337 336 340 340 342 341 342 339 339 339 339 339 341 340 343 341 340 344 352 355 356 357 357 358 358 359 360 360 361 361 361 363 362 360 360 360 359 358
323 318 328 333 336 338 333 336 337 337 342 341 340 341 342 339 344 342 339 342 341 340 340 343 347 357 358 360 360 360 360 360 360 360 360 361 361 361 361 361 361 363 362 360
333 332 331 338 339 336 334 336 338 336 341 341 341 340 338 339 338 338 341 341 340 336 349 353 356 356 355 359 354 354 358 361 359 354 351 349 355 360 360 360 360 360 358 357
335 337 342 340 339 340 339 339 346 340 338 338 338 336 335 334 336 339 341 340 336 335 343 347 344 345 349 351 353 355 354 352 354 350 348 350 350 348 351 356 359 359 357 357
340 335 338 339 339 334 333 338 340 340 337 340 339 337 336 334 334 336 339 338 335 335 340 342 345 348 349 353 353 350 343 344 340 337 335 339 352 354 353 350 351 355 357 355
339 336 336 335 338 338 337 336 337 338 338 338 337 339 336 335 335 334 337 336 333 333 335 343 344 346 347 345 341 339 338 336 335 336 339 343 348 356 354 352 350 355 356 355
338 338 339 340 339 327 327 329 337 337 336 334 332 332 335 334 336 336 334 332 332 334 338 343 342 342 342 340 339 338 336 336 338 340 341 345 351 355 355 353 351 349 352 353
330 336 341 342 336 325 327 325 331 334 332 329 326 324 325 329 333 335 334 333 335 337 338 339 337 336 336 338 338 337 338 339 342 344 345 346 349 354 353 351 349 347 346 348
Wind_Speed
3 4 7 12 7 6 5 3 5 3 6 4 7 4 8 8 12 13 12 13 13 14 14 22 30 31 34 33 34 35 33 30 28 25 21 17 12 7 9 10 8 13 7 11
6 5 9 7 10 4 3 2 8 2 6 5 6 9 6 15 16 18 16 14 14 12 6 14 23 28 35 35 38 37 34 31 27 24 23 21 15 10 13 12 14 18 8 8
6 6 5 4 4 5 2 5 6 5 1 3 3 8 2 5 5 11 15 15 13 13 9 10 19 25 30 32 39 41 37 32 28 24 22 18 14 9 10 12 13 12 8 8
4 4 6 4 6 7 6 10 10 9 2 3 2 4 6 5 8 9 14 14 13 11 8 10 18 22 28 38 41 41 38 34 30 26 23 23 20 16 11 9 13 9 8 8
8 7 5 4 10 6 11 10 14 12 5 3 2 3 7 4 7 9 14 11 12 15 14 14 19 28 32 32 38 42 39 35 33 31 28 23 22 17 14 12 14 11 10 10
6 1 6 10 8 11 1 6 8 5 4 2 6 6 7 4 11 7 7 12 10 13 15 15 23 26 26 30 31 35 39 36 35 33 31 27 25 20 16 15 15 13 13 12
5 3 3 2 1 4 6 7 3 3 2 6 3 4 10 7 8 9 11 13 10 13 14 14 15 19 24 30 34 31 37 36 36 36 34 31 27 25 21 18 16 14 16 16
5 6 6 4 8 9 7 9 6 6 4 5 2 6 7 7 6 8 8 5 8 10 15 17 17 22 26 30 31 37 36 36 36 37 37 34 30 27 24 21 17 16 19 17
5 5 3 4 5 9 4 3 4 7 3 2 3 7 6 8 3 6 9 7 8 9 16 17 17 23 26 30 33 40 41 37 36 39 38 36 33 30 28 25 22 19 17 16
4 1 4 3 3 3 6 7 3 4 3 2 5 4 4 5 6 3 6 7 5 6 14 15 15 23 27 33 36 34 41 43 39 39 39 38 37 34 30 27 26 22 18 18
5 4 6 4 2 9 2 3 6 6 5 5 2 6 5 6 3 7 6 5 7 10 6 7 9 22 20 21 28 37 40 42 38 37 39 38 37 36 36 31 29 25 22 19
7 5 4 12 4 4 5 6 6 5 4 1 4 5 1 3 6 5 10 9 4 5 8 3 4 13 21 25 27 32 35 40 43 41 37 39 38 35 35 37 36 30 26 24
8 1 2 11 6 3 4 4 5 5 4 6 6 5 2 7 4 8 14 6 2 6 7 5 7 8 18 22 26 27 32 44 43 37 33 37 37 36 36 35 34 33 31 28
10 4 7 7 8 2 2 5 5 6 5 6 5 5 5 5 9 10 6 7 8 7 7 6 4 4 14 20 23 24 27 30 30 33 33 34 37 37 36 33 32 32 31 31
7 5 5 6 1 1 3 3 7 6 6 7 7 9 8 9 10 6 4 9 9 8 7 5 4 6 9 11 16 21 24 27 30 30 32 35 37 36 33 31 32 32 31 31
1 3 3 6 7 8 7 9 5 3 4 6 7 3 6 2 7 4 6 10 7 7 7 5 6 6 9 11 10 6 12 20 24 27 30 33 32 32 32 31 31 31 32 31
4 6 4 1 3 4 7 7 3 4 3 7 10 7 6 1 4 4 2 4 9 8 7 8 7 9 12 11 9 6 4 1 7 19 22 25 27 29 29 29 28 30 29 30
6 5 2 3 2 4 7 0 5 9 7 5 2 4 5 3 2 5 1 4 6 7 6 7 8 10 11 11 9 7 4 4 3 3 4 8 16 24 26 26 29 31 30 28
3 6 4 4 3 1 3 5 3 4 4 5 6 7 5 2 3 4 4 3 2 3 4 7 12 12 13 10 8 6 3 2 4 4 4 5 7 9 14 21 27 29 29 28
7 7 5 3 5 4 6 3 1 3 3 4 8 7 8 6 4 5 7 6 4 4 9 14 13 14 12 10 9 6 3 4 5 7 9 9 9 10 12 13 18 23 24 26
4 4 4 3 3 4 5 2 2 4 6 2 5 9 8 6 5 4 6 4 8 10 17 17 18 17 12 12 9 5 4 5 2 4 5 7 10 14 14 14 15 18 20 22
4 5 2 3 4 3 0 3 6 6 0 5 5 5 8 5 5 5 6 7 8 8 14 19 18 14 15 13 10 7 4 3 4 6 8 9 9 9 11 13 17 19 18 18
2 4 5 4 4 4 4 2 1 4 5 5 8 6 7 6 6 4 3 7 8 17 20 20 21 16 14 13 12 7 5 4 6 9 14 13 13 12 11 12 15 18 19 18
2 3 4 4 7 5 4 4 3 2 2 4 6 6 6 6 2 7 5 6 6 13 15 19 16 15 14 13 10 7 4 6 10 14 17 15 14 15 13 11 12 14 16 16
2 2 4 3 3 8 10 6 3 6 7 7 7 5 3 7 6 6 4 5 6 8 9 17 19 16 15 11 8 6 7 9 13 16 19 18 13 15 14 13 12 14 17 20
1 5 4 4 3 7 3 2 1 7 6 6 9 8 7 5 7 5 4 2 5 4 4 8 7 6 6 6 6 8 9 12 16 20 22 20 16 17 17 15 14 14 15 17
Wind_Direction
32 115 169 188 186 204 138 212 275 162 195 129 217 259 226 180 186 200 206 211 207 210 215 192 185 188 187 189 189 189 190 191 192 199 195 195 193 205 196 213 213 204 233 226
26 209 230 134 166 183 225 275 281 261 176 161 192 252 214 192 196 195 201 211 212 214 167 181 184 178 189 189 194 194 197 195 198 205 205 206 207 213 224 240 230 215 248 218
158 228 199 148 152 143 217 195 274 208 134 332 60 328 150 218 192 193 209 212 211 212 185 177 184 182 183 189 197 200 202 200 198 200 201 201 208 215 229 227 200 207 206 217
212 235 180 175 232 138 248 187 228 238 168 212 99 276 286 237 195 191 200 198 200 198 187 176 184 186 185 198 202 204 204 203 201 201 201 204 211 216 225 230 208 205 194 203
240 172 157 180 227 141 235 163 206 233 85 27 19 63 268 0 258 206 224 212 198 193 185 177 185 190 197 195 203 206 206 206 205 203 206 209 215 218 227 226 210 213 212 211
237 197 152 212 226 177 79 63 36 60 99 353 196 158 282 201 220 233 209 218 186 186 190 188 190 188 195 200 202 204 205 208 207 208 209 211 212 213 220 215 221 224 216 208
323 242 256 166 134 31 81 77 19 9 0 225 86 120 245 262 238 213 213 217 190 179 185 189 175 184 189 197 200 203 208 209 211 210 212 214 215 217 225 226 222 219 201 204
160 318 182 180 186 191 182 157 149 184 180 246 138 234 258 281 233 228 233 240 157 173 186 195 185 184 191 195 201 202 204 211 213 214 215 217 219 220 225 227 225 217 212 217
141 268 289 217 182 141 200 192 182 104 12 75 243 297 325 345 10 342 253 217 185 186 186 189 189 184 186 191 200 206 208 211 217 220 219 220 222 226 225 226 225 221 223 218
190 259 221 275 153 53 161 161 72 18 130 228 285 280 235 314 342 16 33 5 345 250 197 180 188 188 190 196 202 203 212 215 218 223 223 225 224 226 227 227 226 230 232 223
133 107 280 24 209 191 119 127 46 110 121 165 215 264 200 268 306 322 16 31 80 90 103 166 197 204 190 192 193 204 212 219 221 223 225 227 230 232 231 229 229 232 234 228
201 143 219 235 214 227 131 153 131 121 229 168 155 272 123 242 161 81 309 247 99 97 118 144 175 189 187 186 192 202 206 214 225 228 227 230 231 233 235 234 234 234 232 231
178 225 13 330 352 348 153 153 118 113 87 182 142 254 49 5 127 228 227 95 40 54 63 118 166 183 187 191 191 191 201 217 227 223 223 228 232 234 238 239 238 238 234 233
105 127 155 190 215 196 201 140 161 128 122 172 216 189 200 193 211 219 192 100 73 57 43 53 98 163 184 195 200 202 205 207 207 212 218 224 233 237 239 240 241 240 237 235
125 155 169 232 157 224 72 9 172 178 174 151 213 196 192 191 209 216 109 87 77 49 51 68 87 94 110 170 201 214 219 221 224 223 226 231 237 239 240 240 242 243 241 236
170 168 132 30 137 111 71 28 48 116 137 76 103 193 213 260 310 287 125 126 117 122 128 116 102 97 102 108 110 170 227 231 229 229 232 239 240 241 241 243 243 242 240 239
96 125 99 198 282 351 24 342 343 87 334 143 155 223 131 252 305 322 277 145 143 147 143 155 162 152 150 131 116 105 87 74 243 240 244 245 248 249 248 248 248 245 243 244
123 97 100 176 24 63 243 2 14 106 103 38 0 104 105 352 320 296 210 201 161 141 165 154 124 107 115 115 102 93 68 25 352 318 281 273 263 256 255 253 250 249 247 243
67 123 79 137 90 1 334 325 141 139 175 188 165 142 166 337 315 291 214 235 185 166 177 153 139 132 129 129 135 158 140 24 354 339 311 297 286 269 256 255 255 254 246 243
66 73 107 94 102 168 237 266 316 282 18 142 125 141 155 194 156 232 202 192 213 242 162 143 153 143 137 141 136 138 173 229 277 315 313 303 288 268 259 264 264 261 255 250
41 23 101 90 115 298 263 291 6 84 229 174 172 156 161 184 213 249 152 188 187 175 144 141 148 153 164 164 157 157 152 196 215 345 343 321 291 279 274 271 265 258 258 258
130 118 135 99 90 138 4 321 166 200 75 148 115 180 173 215 287 327 191 172 142 161 163 162 158 170 185 179 187 177 171 234 265 295 302 289 279 278 282 278 269 262 257 251
55 174 149 150 202 267 275 256 216 144 153 182 169 163 175 200 235 298 274 162 171 177 174 173 173 174 178 180 188 183 236 252 292 306 313 296 269 256 262 277 278 269 261 255
15 166 90 90 342 347 11 12 78 73 327 81 94 104 161 219 220 258 243 201 201 187 183 187 176 169 178 184 189 218 246 281 287 304 307 306 283 259 267 276 280 264 251 239
195 84 120 87 233 74 31 20 32 54 51 59 60 55 105 163 207 207 174 192 214 203 191 183 185 189 197 203 224 244 273 302 301 299 295 295 283 263 264 262 266 267 258 252
197 156 137 188 217 128 147 20 52 82 64 61 78 49 34 88 88 102 98 139 147 177 183 196 214 235 259 264 250 280 312 310 309 299 298 290 276 264 260 257 271 267 259 250